DW3478 Weather Reports


time (UTC)temp
C
wind
direction
speed
KPH
gust
KPH
rain 1hr
cm
rain 24hr
cm
rain mn
cm
humidity
%
barometer
mb
20260901131805 25 241 8.0 14.5 0.00 0.00 0.00 76 1022.0
20260901131306 25 275 6.4 11.3 0.00 0.00 0.00 76 1022.0
20260901130805 25 243 8.0 14.5 0.00 0.00 0.00 75 1022.0
20260901130306 24 275 8.0 11.3 0.00 0.00 0.00 78 1022.0
20260901125806 25 246 6.4 11.3 0.00 0.00 0.00 77 1022.0
20260901124806 24 243 8.0 14.5 0.00 0.00 0.00 77 1022.0
20260901124307 24 232 8.0 14.5 0.00 0.00 0.00 76 1022.0
20260901123805 24 261 8.0 14.5 0.00 0.00 0.00 77 1022.0
20260901123306 24 262 9.7 14.5 0.00 0.00 0.00 75 1022.0
20260901122805 25 253 6.4 12.9 0.00 0.00 0.00 75 1022.0
20260901122306 24 203 4.8 9.7 0.00 0.00 0.00 76 1022.0
20260901120305 24 266 6.4 11.3 0.00 0.00 0.00 78 1022.0
20260901115805 25 264 6.4 12.9 0.00 0.00 0.00 78 1022.0
20260901115306 24 247 6.4 11.3 0.00 0.00 0.00 79 1022.0
20260901114805 24 246 8.0 11.3 0.00 0.00 0.00 77 1022.0
20260901114305 24 264 4.8 9.7 0.00 0.00 0.00 77 1022.0
20260901113805 24 267 4.8 11.3 0.00 0.00 0.00 79 1022.0
20260901113305 23 262 9.7 14.5 0.00 0.00 0.00 81 1022.0
20260901112806 23 264 6.4 14.5 0.00 0.00 0.00 83 1022.0
20260901112306 23 280 4.8 12.9 0.00 0.00 0.00 81 1022.0
20260901105305 23 244 8.0 11.3 0.00 0.00 0.00 82 1022.0
20260901104806 23 257 8.0 12.9 0.00 0.00 0.00 81 1022.0
20260901104305 23 265 4.8 11.3 0.00 0.00 0.00 81 1022.0
20260901103805 23 253 6.4 11.3 0.00 0.00 0.00 82 1022.0
20260901102306 23 241 4.8 11.3 0.00 0.00 0.00 84 1022.0
20260901101806 23 248 6.4 9.7 0.00 0.00 0.00 82 1022.0
20260901095805 23 234 8.0 11.3 0.00 0.00 0.00 82 1022.0
20260901093805 22 249 4.8 8.0 0.00 0.00 0.00 83 1022.0
20260901093305 22 244 3.2 8.0 0.00 0.00 0.00 83 1022.0
20260901092306 22 238 3.2 4.8 0.00 0.00 0.00 87 1022.0
20260901091805 21 252 3.2 4.8 0.00 0.00 0.00 87 1022.0
20260901085805 22 252 4.8 8.0 0.00 0.00 0.00 85 1022.0
20260901085306 22 218 3.2 4.8 0.00 0.00 0.00 85 1022.0
20260901084805 22 240 4.8 4.8 0.00 0.00 0.00 85 1022.0
20260901084305 22 236 1.6 4.8 0.00 0.00 0.00 85 1022.0
20260901083805 22 40 1.6 4.8 0.00 0.00 0.00 83 1022.0
20260901083305 22 134 1.6 4.8 0.00 0.00 0.00 83 1022.0
20260901082805 22 115 0.0 3.2 0.00 0.00 0.00 85 1022.0
20260901075805 20 75 0.0 1.6 0.00 0.00 0.00 90 1022.0
20260901075307 20 23 0.0 1.6 0.00 0.00 0.00 90 1022.0
20260901074805 20 23 1.6 1.6 0.00 0.00 0.00 90 1022.0
20260901074306 20 25 1.6 3.2 0.00 0.00 0.00 90 1022.0
20260901071805 18 22 1.6 3.2 0.00 0.00 0.00 89 1021.0
20260901071304 18 22 3.2 4.8 0.00 0.00 0.00 88 1021.0
20260901070805 18 19 1.6 3.2 0.00 0.00 0.00 88 1021.0
20260901064305 19 36 3.2 4.8 0.00 0.00 0.00 89 1021.0
20260901062805 19 34 3.2 4.8 0.00 0.00 0.00 89 1021.0
20260901061805 19 13 1.6 3.2 0.00 0.00 0.00 89 1021.0
20260901061305 19 13 1.6 3.2 0.00 0.00 0.00 89 1021.0
20260901060805 19 13 1.6 3.2 0.00 0.00 0.00 89 1021.0
20260901054805 19 4 1.6 1.6 0.00 0.00 0.00 88 1021.0
20260901054305 19 13 0.0 1.6 0.00 0.00 0.00 89 1021.0
20260901052805 19 13 1.6 3.2 0.00 0.00 0.00 88 1021.0
20260901052307 20 18 1.6 3.2 0.00 0.00 0.00 88 1021.0
20260901050805 20 23 1.6 4.8 0.00 0.00 0.00 88 1021.0
20260901050306 20 21 1.6 3.2 0.00 0.00 0.00 88 1021.0
20260901044805 20 14 0.0 4.8 0.00 0.00 0.00 87 1021.0
20260901044305 20 1 0.0 0.0 0.00 0.00 0.00 86 1021.0
20260901043805 20 3 0.0 1.6 0.00 0.00 0.00 86 1021.0
20260901043305 20 14 3.2 4.8 0.00 0.00 0.00 86 1021.0
20260901042805 20 16 3.2 4.8 0.00 0.00 0.00 86 1021.0
20260901041805 20 30 3.2 4.8 0.00 0.00 0.00 85 1021.0
20260901041305 20 21 3.2 4.8 0.00 0.00 0.00 85 1021.0
20260901040304 20 41 3.2 4.8 0.00 0.00 0.00 83 1021.0
20260901035805 20 21 3.2 4.8 0.00 0.00 0.00 83 1021.0
20260901024304 20 52 1.6 4.8 0.00 0.00 0.00 75 1022.0
20260901023805 20 79 1.6 4.8 0.00 0.00 0.00 73 1022.0
20260901023304 20 81 0.0 3.2 0.00 0.00 0.00 72 1022.0
20260901022805 20 24 1.6 3.2 0.00 0.00 0.00 71 1022.0
20260901022306 20 24 3.2 4.8 0.00 0.00 0.00 71 1022.0
20260901021805 20 9 0.0 0.0 0.00 0.00 0.00 71 1022.0
20260901021305 20 9 0.0 3.2 0.00 0.00 0.00 72 1022.0
20260901015804 20 13 3.2 4.8 0.00 0.00 0.00 72 1022.0
20260901013805 20 18 3.2 4.8 0.00 0.00 0.00 75 1022.0
20260901013306 20 14 3.2 4.8 0.00 0.00 0.00 76 1022.0
20260901012804 20 3 3.2 4.8 0.00 0.00 0.00 77 1022.0
20260901012306 20 22 3.2 4.8 0.00 0.00 0.00 78 1022.0
20260901011304 20 11 1.6 3.2 0.00 0.00 0.00 78 1022.0
20260901010805 20 11 1.6 3.2 0.00 0.00 0.00 77 1022.0
20260901010304 20 4 1.6 3.2 0.00 0.00 0.00 78 1022.0
20260901005307 20 15 1.6 4.8 0.00 0.00 0.00 79 1022.0
20260901003805 20 15 1.6 4.8 0.00 0.00 0.00 80 1022.0
20260901003306 20 15 3.2 4.8 0.00 0.00 0.00 80 1022.0
20260901002804 20 9 3.2 4.8 0.00 0.00 0.00 79 1022.0
20260831235306 21 16 0.0 3.2 0.00 0.00 0.00 82 1022.0
20260831234805 20 17 1.6 1.6 0.00 0.00 0.00 81 1022.0
20260831234304 20 17 1.6 3.2 0.00 0.00 0.00 80 1022.0
20260831233805 20 17 1.6 3.2 0.00 0.00 0.00 80 1022.0
20260831233305 20 17 1.6 3.2 0.00 0.00 0.00 79 1022.0
20260831232805 20 12 1.6 3.2 0.00 0.00 0.00 79 1022.0
20260831232306 20 1 1.6 4.8 0.00 0.00 0.00 79 1022.0
20260831231805 20 22 3.2 4.8 0.00 0.00 0.00 79 1022.0
20260831231305 20 20 3.2 4.8 0.00 0.00 0.00 80 1022.0
20260831230805 20 20 3.2 4.8 0.00 0.00 0.00 80 1022.0
20260831225306 20 28 3.2 4.8 0.00 0.00 0.00 79 1022.0
20260831224805 21 19 1.6 3.2 0.00 0.00 0.00 79 1022.0
20260831223304 21 22 3.2 4.8 0.00 0.00 0.00 80 1023.0
20260831222306 21 32 1.6 3.2 0.00 0.00 0.00 81 1023.0
20260831221805 21 31 1.6 4.8 0.00 0.00 0.00 81 1023.0
20260831221304 21 42 1.6 4.8 0.00 0.00 0.00 81 1023.0
20260831220806 21 35 1.6 4.8 0.00 0.00 0.00 81 1022.0
20260831215804 21 34 0.0 4.8 0.00 0.00 0.00 81 1022.0
20260831215306 21 27 0.0 3.2 0.00 0.00 0.00 81 1022.0
20260831214804 21 32 0.0 1.6 0.00 0.00 0.00 82 1022.0
20260831213304 21 5 0.0 3.2 0.00 0.00 0.00 82 1022.0
20260831212805 21 5 0.0 1.6 0.00 0.00 0.00 83 1022.0
20260831212306 21 11 0.0 0.0 0.00 0.00 0.00 82 1022.0
20260831210804 21 11 0.0 3.2 0.00 0.00 0.00 82 1021.0
20260831210304 21 28 0.0 3.2 0.00 0.00 0.00 81 1021.0
20260831205804 21 10 0.0 1.6 0.00 0.00 0.00 81 1021.0
20260831205306 21 10 0.0 0.0 0.00 0.00 0.00 81 1021.0
20260831204304 21 10 0.0 3.2 0.00 0.00 0.00 81 1021.0
20260831203805 22 12 1.6 3.2 0.00 0.00 0.00 80 1021.0
20260831203304 22 341 0.0 0.0 0.00 0.00 0.00 80 1021.0
20260831202804 22 76 0.0 0.0 0.00 0.00 0.00 80 1021.0
20260831195804 22 76 0.0 1.6 0.00 0.00 0.00 78 1021.0
20260831195306 22 76 0.0 3.2 0.00 0.00 0.00 77 1021.0
20260831193804 23 163 3.2 4.8 0.00 0.00 0.00 77 1021.0
20260831193304 23 148 3.2 4.8 0.00 0.00 0.00 76 1021.0
20260831191304 23 156 4.8 8.0 0.00 0.00 0.00 75 1021.0
20260831190804 23 132 3.2 4.8 0.00 0.00 0.00 75 1021.0
20260831190304 23 120 1.6 8.0 0.00 0.00 0.00 74 1021.0
20260831184805 24 133 3.2 9.7 0.00 0.00 0.00 74 1021.0
20260831183304 24 216 4.8 8.0 0.00 0.00 0.00 73 1021.0
20260831182805 24 160 4.8 4.8 0.00 0.00 0.00 74 1021.0
20260831182305 24 199 3.2 9.7 0.00 0.00 0.00 72 1021.0
20260831181804 24 203 4.8 8.0 0.00 0.00 0.00 72 1021.0
20260831175804 25 168 3.2 9.7 0.00 0.00 0.00 71 1021.0
20260831175306 24 195 4.8 8.0 0.00 0.00 0.00 71 1021.0
20260831173304 25 196 3.2 8.0 0.00 0.00 0.00 68 1021.0
20260831172804 25 216 4.8 9.7 0.00 0.00 0.00 69 1021.0
20260831172306 25 152 6.4 9.7 0.00 0.00 0.00 69 1021.0
20260831170804 25 213 4.8 11.3 0.00 0.00 0.00 70 1021.0
20260831170305 25 164 4.8 9.7 0.00 0.00 0.00 70 1021.0
20260831164305 25 234 4.8 11.3 0.00 0.00 0.00 69 1021.0
20260831162805 25 234 8.0 9.7 0.00 0.00 0.00 69 1021.0
20260831162306 25 203 4.8 11.3 0.00 0.00 0.00 67 1021.0
20260831161805 25 251 6.4 11.3 0.00 0.00 0.00 68 1021.0
20260831155306 25 209 4.8 14.5 0.00 0.00 0.00 68 1021.0
20260831152804 26 153 8.0 11.3 0.00 0.00 0.00 69 1021.0
20260831152306 26 168 8.0 14.5 0.00 0.00 0.00 70 1021.0
20260831151806 25 223 6.4 14.5 0.00 0.00 0.00 71 1021.0
20260831145306 25 246 6.4 12.9 0.00 0.00 0.00 73 1021.0
20260831144806 25 217 4.8 9.7 0.00 0.00 0.00 71 1021.0
20260831144305 25 216 4.8 14.5 0.00 0.00 0.00 70 1021.0
20260831143805 25 198 8.0 11.3 0.00 0.00 0.00 71 1022.0
20260831143306 25 253 6.4 11.3 0.00 0.00 0.00 71 1022.0
20260831135306 25 235 6.4 14.5 0.00 0.00 0.00 72 1022.0
20260831133805 25 233 8.0 16.1 0.00 0.00 0.00 73 1022.0
20260831133306 25 258 4.8 11.3 0.00 0.00 0.00 74 1022.0
20260831132805 25 248 8.0 12.9 0.00 0.00 0.00 71 1022.0
20260831132307 24 236 6.4 12.9 0.00 0.00 0.00 75 1022.0